TIME,DELAY(SENSOR),PRES,OXYGEN,RAWTEMP,T(OPTODE),TCPHASE,FLUOR,BETA(BETA700),BETA(BETA412),BETA(BETA440),CDOM,C(CSC),ED(ED411.90),ED(ED443.80),ED(ED489.40),ED(ED554.70),LU(LU412.20),LU(LU443.80),LU(LU489.40),LU(LU555.00),COMP,TILTX,TILTY,CHECK
1357682636,5804,854.8699951171875000,163.2156066894531200,427.9862060546875000,9.7479095458984380,39.1838493347168000,52,99,98,80,80,12280,2146959250,2147518592,2147290523,2147497417,2147091958,2146932425,2147702518,2147121453,2335,-1,9,3159
1357686232,5807,972.8900146484375000,196.1912994384765600,499.3067932128906000,7.5510001182556150,38.1240196228027340,53,101,97,78,81,12273,2146960576,2147517266,2147298185,2147517558,2147094528,2146922185,2147718930,2147121170,291,-1,9,35818
1357689832,5807,993.5999755859375000,207.1049957275390600,509.3781127929687500,7.2382488250732420,37.6323013305664060,52,101,97,80,81,12269,2146963867,2147515611,2147299382,2147516205,2147092864,2146924150,2147718162,2147122212,3344,-1,9,47020
1357693432,5803,994.9299926757812000,205.7518005371093800,510.5346984863281000,7.2022900581359860,37.7336311340332000,52,101,97,80,80,12269,2146963675,2147518244,2147297627,2147514349,2147090889,2146923913,2147716498,2147121801,3495,-1,9,29059
1357697032,5805,1002.9500122070312000,207.3833007812500000,511.5329895019531000,7.1712450981140140,37.6537017822265600,52,99,98,79,81,12269,2146962797,2147517924,2147301165,2147514925,2147094665,2146923218,2147712256,2147121974,3457,-1,9,42821
1357700632,5808,1003.7399902343750000,206.9207000732422000,511.9360046386719000,7.1587100028991700,37.6880989074707000,52,101,98,77,81,12272,2146958902,2147518994,2147297664,2147515556,2147095314,2146921645,2147722660,2147122596,50,-1,9,19153
1357704232,5806,1001.8699951171875000,206.9709014892578000,513.9586181640625000,7.0957808494567870,37.7210998535156250,53,100,98,80,79,12265,2146963958,2147516891,2147298998,2147512978,2147093010,2146925248,2147719808,2147121508,3290,-1,9,40008
1357707832,5805,1000.6900024414062000,208.6360015869140600,514.9517822265625000,7.0648689270019530,37.6391487121582000,53,100,97,79,80,12267,2146964507,2147519616,2147297380,2147516845,2147092772,2146926098,2147718838,2147119972,2759,-1,9,43886
1357711432,5806,998.5700073242188000,209.8692932128906200,515.3911132812500000,7.0511941909790040,37.5742683410644500,52,97,98,80,81,12266,2146965266,2147518317,2147300096,2147517238,2147093522,2146925421,2147724178,2147121636,358,-1,9,6668
1357715032,5807,999.7000122070312000,209.4953002929687500,516.4885253906250000,7.0170311927795410,37.6162910461425800,52,99,97,80,80,12265,2146962358,2147516662,2147295104,2147517668,2147091949,2146923328,2147721609,2147125805,158,-1,8,58385
1357718632,5804,997.8800048828125000,210.4123992919922000,518.1480712890625000,6.9653439521789550,37.5918998718261700,51,105,97,80,80,12263,2146961188,2147518089,2147299282,2147519542,2147090724,2146922742,2147719250,2147122358,3475,-1,9,4417
1357722232,5808,1001.5300292968750000,212.2032012939453000,517.7861938476562000,6.9766168594360350,37.4807891845703100,53,100,97,80,82,12263,2146963355,2147519040,2147297590,2147517732,2147090953,2146919268,2147719040,2147123858,62,-1,8,18239
1357725832,5805,1002.2100219726562000,213.0375061035156200,518.1973876953125000,6.9638080596923830,37.4391288757324200,51,101,97,80,80,12263,2146960877,2147519442,2147296950,2147517650,2147091355,2146923172,2147718528,2147121563,2761,-1,9,54563
1357729432,5806,1002.9299926757812000,212.2902069091797000,518.2733764648438000,6.9614419937133790,37.4838790893554700,53,100,97,78,81,12267,2146963181,2147518729,2147294966,2147517449,2147095945,2146917814,2147720091,2147120210,3272,-1,9,32484
1357733032,5803,1006.6799926757812000,212.3654937744140600,517.1892700195312000,6.9952049255371090,37.4604606628418000,52,101,97,81,80,12265,2146962048,2147517266,2147298358,2147517942,2147093961,2146923318,2147718756,2147123346,3326,-1,9,31697
1357736632,5805,1005.9699707031250000,210.3939056396484400,516.7462158203125000,7.0090060234069820,37.5675201416015600,52,99,98,78,81,12264,2146963556,2147518171,2147297417,2147518701,2147092333,2146921490,2147716269,2147124361,3335,-1,8,25100
1357740232,5803,1007.7500000000000000,210.2590942382812500,517.4290161132812000,6.9877419471740720,37.5881118774414060,53,99,99,78,80,12266,2146959734,2147517650,2147303360,2147517805,2147091154,2146918738,2147714157,2147124516,3462,-1,9,30285
1357743832,5807,1009.1300048828125000,210.9183959960937500,516.6151123046875000,7.0130882263183590,37.5346107482910160,53,99,98,78,80,12265,2146963126,2147519268,2147298989,2147518299,2147092278,2146924461,2147719469,2147125248,167,-1,8,15820
1357747432,5808,1009.9899902343750000,210.6318054199218800,516.7163696289062000,7.0099320411682130,37.5536003112793000,53,100,98,78,81,12261,2146961426,2147518290,2147299236,2147516525,2147093056,2146924150,2147724278,2147121334,334,-1,8,3340
1357751032,5807,1005.4600219726562000,210.6678924560547000,517.5584106445312000,6.9837098121643070,37.5655708312988300,53,99,97,79,81,12263,2146966390,2147516608,2147298267,2147516708,2147092672,2146925312,2147718500,2147121051,3433,-1,9,25042
1357754632,5808,1002.9099731445312000,210.6627960205078000,518.1323852539062000,6.9658341407775880,37.5763092041015600,52,100,99,79,80,12263,2146964059,2147520091,2147296850,2147515035,2147095232,2146922624,2147720749,2147121536,3569,-1,9,38395
1357758232,5804,1006.1500244140625000,212.0879974365234400,518.6621704101562000,6.9493269920349120,37.5026512145996100,52,101,98,80,81,12263,2146961353,2147519369,2147298011,2147516818,2147093668,2146925942,2147723364,2147123757,3201,-1,9,62877
1357761832,5805,997.7000122070312000,211.5623931884765600,520.0858764648438000,6.9049677848815920,37.5583114624023440,53,100,99,79,81,12260,2146963008,2147520054,2147301074,2147519067,2147091062,2146918802,2147725211,2147120237,3239,-1,9,53277
1357765432,5807,998.3300170898438000,213.5357055664062500,522.2205810546875000,6.8384299278259280,37.4816894531250000,52,101,99,79,80,12258,2146965193,2147517586,2147297124,2147516626,2147090688,2146918829,2147724690,2147122002,408,-1,8,9734
1357769032,5808,1007.7899780273438000,213.9729003906250000,519.1287231445312000,6.9347939491271970,37.4020309448242200,52,105,97,80,80,12257,2146963794,2147518354,2147298614,2147518464,2147090230,2146924086,2147718372,2147123510,3280,-1,9,54586
1357772632,5805,1013.2500000000000000,211.9430999755859400,517.4147949218750000,6.9881830215454100,37.4894294738769500,51,99,97,79,79,12258,2146959963,2147519451,2147297938,2147514880,2147091803,2146924809,2147718784,2147121234,341,-1,8,17245
1357776232,5806,1015.7700195312500000,209.4662017822265600,515.5645751953125000,7.0457940101623535,37.6017684936523440,53,101,98,79,81,12251,2146963154,2147518134,2147299931,2147517293,2147091392,2146923849,2147720027,2147124964,3238,-1,9,7208
1357779832,5807,1015.6699829101562000,208.5335998535156200,515.8220825195312000,7.0377769470214840,37.6608695983886700,52,101,99,78,81,12249,2146962459,2147521325,2147297846,2147519424,2147089078,2146920521,2147725056,2147122953,3410,-1,9,7999
1357783432,5806,1011.2500000000000000,209.3650054931640600,516.8483276367188000,7.0058240890502930,37.6303787231445300,52,98,98,79,80,12243,2146958720,2147513892,2147298486,2147518930,2147091830,2146920466,2147722441,2147124461,3381,-1,9,53378
1357787032,5802,1009.0900268554688000,209.9237976074218800,518.1729736328125000,6.9645690917968750,37.6204414367675800,52,101,98,80,80,12251,2146961673,2147518820,2147299638,2147519195,2147092096,2146924434,2147724434,2147125485,3275,-1,9,3607
1357790632,5805,1008.0000000000000000,211.0364990234375000,518.3795776367188000,6.9581341743469240,37.5585403442382800,52,100,97,80,81,12248,2146964946,2147517769,2147298249,2147518729,2147090413,2146925366,2147719862,2147122642,3257,-1,9,54880
1357794232,5805,1011.3200073242188000,211.7922058105468800,518.6942749023438000,6.9483280181884770,37.5206489562988300,52,98,98,78,81,12246,2146966098,2147519606,2147301458,2147513270,2147089545,2146925412,2147719616,2147120777,3316,-1,9,42593
1357797832,5805,1008.5200195312500000,210.6300964355468800,518.8281860351562000,6.9441571235656740,37.5910186767578100,52,98,97,79,81,12242,2146962669,2147518061,2147301019,2147516617,2147093558,2146924178,2147724278,2147120950,3104,-1,8,33169
1357801432,5806,1008.5300292968750000,212.9656066894531200,519.4345092773438000,6.9252672195434570,37.4649505615234400,52,99,98,78,81,12246,2146963126,2147520923,2147298934,2147517366,2147088868,2146925549,2147719241,2147123282,3287,-1,9,52462
1357805032,5807,1007.0700073242188000,215.0341949462890600,520.6550292968750000,6.8872351646423340,37.3676109313964840,52,99,98,79,81,12243,2146963090,2147522816,2147297142,2147516507,2147094070,2146922185,2147720201,2147121901,379,-1,8,14136
1357808632,5809,1003.7000122070312000,213.7855072021484400,521.2199707031250000,6.8696241378784180,37.4493598937988300,51,99,97,79,80,12246,2146962925,2147519341,2147299254,2147517897,2147088694,2146925458,2147723666,2147120557,166,-1,8,48602
1357812232,5807,1005.7500000000000000,214.3762054443359400,521.7377929687500000,6.8534817695617680,37.4251594543457000,52,102,97,111,81,12244,2146965430,2147519990,2147300452,2147518464,2147090998,2146918564,2147721014,2147118116,464,-1,8,10217
1357815832,5805,1007.8200073242188000,214.7877960205078000,522.2144775390625000,6.8386201858520510,37.4101295471191400,52,100,97,79,80,12243,2146962870,2147518537,2147300333,2147517485,2147092086,2146917494,2147720530,2147122989,499,-1,9,60753
1357819432,5806,1010.2199707031250000,213.8961944580078000,520.6323852539062000,6.8879370689392090,37.4330291748046900,52,98,97,78,81,12242,2146964571,2147519396,2147299236,2147517019,2147093101,2146922834,2147723136,2147122459,216,-1,9,55500
1357823032,5807,1010.1400146484375000,214.0930023193359400,519.6666870117188000,6.9180331230163570,37.4047088623046900,52,100,99,77,81,12243,2146961828,2147518491,2147299108,2147520155,2147090770,2146920502,2147719067,2147123794,3518,-1,8,51639
1357826632,5804,1013.2600097656250000,212.9682006835937500,519.1766967773438000,6.9333000183105470,37.4607391357421900,52,99,97,78,80,12241,2146962688,2147518646,2147302345,2147517120,2147090541,2146925156,2147718116,2147122276,3203,-1,9,39190
1357827954,5806,1016.2500000000000000,212.6448059082031200,518.2150878906250000,6.9632568359375000,37.4627685546875000,52,100,96,79,81,12251,2146960585,2147521865,2147298157,2147517440,2147090377,2146919213,2147722285,2147122706,804,-1,9,34555
